Regional Weather Roundup
Issued by NWS

Home | Current Version | Previous Version | Graphics & Text | Print | Product List | Glossary On
Versions: 1 2 3 4 5 6 7 8 9 10 11 12 13 14 15 16 17 18 19 20 21 22 23 24 25 26 27 28 29 30 31 32 33 34 35 36 37 38 39 40 41 42 43 44 45 46 47 48 49 50
000
ASUS43 KFSD 211002
RWRSD

WEATHER ROUNDUP FOR SOUTH DAKOTA
NATIONAL WEATHER SERVICE SIOUX FALLS SD
500 AM CDT MON MAY 21 2018

NOTE: "FAIR" INDICATES FEW OR NO CLOUDS BELOW 12,000 FEET WITH NO
SIGNIFICANT WEATHER AND/OR OBSTRUCTIONS TO VISIBILITY.


SDZ001>005-009-010-012>017-211100-
NORTHWEST AND NORTH CENTRAL SOUTH DAKOTA

CITY           SKY/WX    TMP DP  RH WIND       PRES   REMARKS
BUFFALO          N/A     44  35  70 SE7       29.93S
FAITH            N/A     42  39  89 S13       30.01F
MOBRIDGE       CLOUDY    53  48  83 CALM      30.02F
$$

SDZ012>016-024>037-041>051-057-063-072>074-211100-
SOUTHWEST AND SOUTH CENTRAL SOUTH DAKOTA

CITY           SKY/WX    TMP DP  RH WIND       PRES   REMARKS
RAPID CTY ARPT CLEAR     40  36  86 SE8       30.01S
PIERRE         CLEAR     46  42  86 NE5       30.01F
CUSTER         CLEAR     38  30  73 W5        30.05F
ELLSWORTH AFB  CLEAR     43  41  92 CALM      30.00F
PHILIP         MOCLDY    41  39  93 CALM      30.03R
PINE RIDGE     CLEAR     46  40  79 NW5       30.03F
SPEARFISH      FAIR      43  39  87 CALM      30.00S
WINNER         CLOUDY    53  48  83 S6        30.05R
$$

SDZ004>011-016>023-039-040-211100-
NORTHEAST SOUTH DAKOTA

CITY           SKY/WX    TMP DP  RH WIND       PRES   REMARKS
ABERDEEN       CLOUDY    58  45  62 S7        30.06S
WATERTOWN      CLOUDY    58  51  78 E8        30.05F
BROOKINGS      CLOUDY    55  53  93 E5        30.06F
SISSETON         N/A     54  39  57 CALM      30.06F
$$

SDZ017-020-022-023-036>040-048>070-211100-
SOUTHEAST SOUTH DAKOTA

CITY           SKY/WX    TMP DP  RH WIND       PRES   REMARKS
SIOUX FALLS    DRIZZLE   55  55 100 E6        30.05F FOG
HURON          CLOUDY    54  53  97 CALM      30.06S
CHAMBERLAIN    MOCLDY    54  52  92 CALM      30.04F
MITCHELL       CLOUDY    55  52  89 SE5       30.06F
YANKTON        LGT RAIN  53  52  96 N3        30.06S FOG
$$

ABBREVIATIONS USED IN REMARKS
   TC - TEMPERATURE IN CELSIUS
  WCI - WIND CHILL INDEX
   HX - HEAT INDEX
  VSB - VISIBILITY




USA.gov is the U.S. government's official web portal to all federal, state and local government web resources and services.